Adelanto, California, United States (92301)
Lat: 34.58N, Lon: 117.41W
Wx Zone: CAZ060
Local Info
Past Weather Observations for Friday, September 26, 2014

NOTE: This archive is for the closest National Weather Service station to Adelanto. Information may differ from the station used for current weather conditions.

Click here for Long-term Archive

Time Weather Temperature Dewpoint Humidity Pressure Winds Precip Visibility
23:55
Clear
61°F / 16°C 39°F / 4°C 45% 29.92 in
(1013 mb)
Calm - 10SM
23:35
Clear
61°F / 16°C 39°F / 4°C 45% 29.92 in
(1013 mb)
Calm - 10SM
23:15
Clear
61°F / 16°C 39°F / 4°C 45% 29.92 in
(1013 mb)
SW 3.5 mph
(SW 6 kph)
- 10SM
22:55
Clear
61°F / 16°C 39°F / 4°C 45% 29.92 in
(1013 mb)
W 9.2 mph
(W 15 kph)
- 10SM
22:35
Clear
61°F / 16°C 41°F / 5°C 48% 29.92 in
(1013 mb)
Calm - 10SM
22:15
Clear
61°F / 16°C 41°F / 5°C 48% 29.92 in
(1013 mb)
W 8.1 mph
(W 13 kph)
- 10SM
21:55
Clear
63°F / 17°C 43°F / 6°C 49% 29.92 in
(1013 mb)
W 13.8 mph
(W 22 kph)
- 10SM
21:35
Clear
63°F / 17°C 43°F / 6°C 49% 29.92 in
(1013 mb)
W 10.4 mph
(W 17 kph)
- 10SM
21:15
Clear
64°F / 18°C 43°F / 6°C 46% 29.92 in
(1013 mb)
WNW 5.8 mph
(WNW 9 kph)
- 10SM
20:55
Clear
64°F / 18°C 41°F / 5°C 43% 29.92 in
(1013 mb)
SSW 5.8 mph
(SSW 9 kph)
- 10SM
20:35
Clear
66°F / 19°C 30°F / -1°C 26% 29.89 in
(1012 mb)
S 10.4 mph
(S 17 kph)
- 10SM
20:15
Clear
68°F / 20°C 34°F / 1°C 28% 29.89 in
(1012 mb)
SSE 16.1 mph
(SSE 26 kph)
- 10SM
19:55
Clear
68°F / 20°C 39°F / 4°C 35% 29.89 in
(1012 mb)
SE 11.5 mph
(SE 19 kph)
- 10SM
19:35
Clear
70°F / 21°C 39°F / 4°C 33% 29.89 in
(1012 mb)
SE 16.1 mph
(SE 26 kph)
- 10SM
19:15
Clear
70°F / 21°C 37°F / 3°C 31% 29.89 in
(1012 mb)
SE 6.9 mph
(SE 11 kph)
- 10SM
18:55
Clear
73°F / 23°C 27°F / -3°C 17% 29.89 in
(1012 mb)
S 6.9 mph
(S 11 kph)
- 10SM
18:35
Clear
73°F / 23°C 34°F / 1°C 23% 29.86 in
(1011 mb)
S 11.5 mph
(S 19 kph)
- 10SM
18:15
Clear
73°F / 23°C 37°F / 3°C 27% 29.86 in
(1011 mb)
SSE 15 mph
(SSE 24 kph)
- 10SM
17:55
Clear
73°F / 23°C 37°F / 3°C 27% 29.86 in
(1011 mb)
SSE 17.3 mph
(SSE 28 kph)
- 10SM
17:35
Clear
75°F / 24°C 39°F / 4°C 27% 29.86 in
(1011 mb)
SSE 18.4 mph
(SSE 30 kph)
- 10SM
17:15
Clear
75°F / 24°C 39°F / 4°C 27% 29.83 in
(1010 mb)
S 24.2 mph
(S 39 kph)
- 7SM
16:55
Clear
Hazy
77°F / 25°C 39°F / 4°C 26% 29.83 in
(1010 mb)
S 28.8 mph
(S 46 kph)
- 3SM
16:35
Obscured
Hazy
79°F / 26°C 39°F / 4°C 24% 29.83 in
(1010 mb)
S 27.6 mph
(S 44 kph)
- 1 3/4SM
16:15
Clear
Hazy
81°F / 27°C 39°F / 4°C 23% 29.83 in
(1010 mb)
S 28.8 mph
(S 46 kph)
- 2SM
16:00
Clear
Hazy
81°F / 27°C 39°F / 4°C 23% 29.83 in
(1010 mb)
S 28.8 mph
(S 46 kph)
- 2 1/2SM
12:15
Partly Cloudy
Hazy
84°F / 29°C 41°F / 5°C 22% 29.89 in
(1012 mb)
S 24.2 mph
(S 39 kph)
- 2 1/2SM
11:55
Partly Cloudy
Hazy
84°F / 29°C 41°F / 5°C 22% 29.92 in
(1013 mb)
S 24.2 mph
(S 39 kph)
- 3SM
11:30
Partly Cloudy
Hazy
84°F / 29°C 43°F / 6°C 23% 29.92 in
(1013 mb)
S 26.5 mph
(S 43 kph)
- 2 1/2SM
11:15
Partly Cloudy
Hazy
84°F / 29°C 45°F / 7°C 25% 29.92 in
(1013 mb)
S 25.3 mph
(S 41 kph)
- 4SM
10:55
Clear
82°F / 28°C 45°F / 7°C 26% 29.92 in
(1013 mb)
S 26.5 mph
(S 43 kph)
- 7SM
10:35
Clear
Hazy
82°F / 28°C 46°F / 8°C 28% 29.92 in
(1013 mb)
S 19.6 mph
(S 32 kph)
- 4SM
10:15
Clear
82°F / 28°C 48°F / 9°C 30% 29.92 in
(1013 mb)
S 24.2 mph
(S 39 kph)
- 10SM
09:55
Clear
82°F / 28°C 48°F / 9°C 30% 29.92 in
(1013 mb)
S 23 mph
(S 37 kph)
- 10SM
09:35
Clear
81°F / 27°C 48°F / 9°C 32% 29.95 in
(1014 mb)
S 20.7 mph
(S 33 kph)
- 10SM
09:15
Clear
81°F / 27°C 50°F / 10°C 34% 29.95 in
(1014 mb)
S 13.8 mph
(S 22 kph)
- 10SM
08:55
Clear
79°F / 26°C 48°F / 9°C 34% 29.95 in
(1014 mb)
S 17.3 mph
(S 28 kph)
- 10SM
08:35
Clear
73°F / 23°C 54°F / 12°C 50% 29.95 in
(1014 mb)
Calm - 10SM
08:15
Clear
72°F / 22°C 54°F / 12°C 53% 29.98 in
(1015 mb)
Calm - 10SM
07:55
Clear
72°F / 22°C 54°F / 12°C 53% 29.98 in
(1015 mb)
Calm - 10SM
07:35
Clear
68°F / 20°C 54°F / 12°C 60% 29.98 in
(1015 mb)
Calm - 10SM
07:15
Clear
64°F / 18°C 52°F / 11°C 64% 29.98 in
(1015 mb)
Calm - 10SM
06:55
Clear
64°F / 18°C 52°F / 11°C 64% 29.98 in
(1015 mb)
Calm - 10SM
06:35
Clear
63°F / 17°C 52°F / 11°C 68% 29.95 in
(1014 mb)
Calm - 10SM
06:15
Clear
61°F / 16°C 52°F / 11°C 72% 29.95 in
(1014 mb)
Calm - 10SM
05:55
Clear
61°F / 16°C 52°F / 11°C 72% 29.98 in
(1015 mb)
Calm - 10SM
05:35
Clear
59°F / 15°C 52°F / 11°C 77% 29.95 in
(1014 mb)
Calm - 10SM
05:15
Clear
63°F / 17°C 52°F / 11°C 68% 29.98 in
(1015 mb)
Calm - 10SM
04:55
Clear
61°F / 16°C 52°F / 11°C 72% 29.98 in
(1015 mb)
Calm - 10SM
04:35
Clear
61°F / 16°C 52°F / 11°C 72% 29.95 in
(1014 mb)
Calm - 10SM
04:15
Clear
63°F / 17°C 52°F / 11°C 68% 29.95 in
(1014 mb)
SSW 3.5 mph
(SSW 6 kph)
- 10SM
03:55
Clear
61°F / 16°C 52°F / 11°C 72% 29.95 in
(1014 mb)
Calm - 10SM
03:35
Clear
63°F / 17°C 52°F / 11°C 68% 29.95 in
(1014 mb)
SSW 5.8 mph
(SSW 9 kph)
- 10SM
03:15
Clear
61°F / 16°C 52°F / 11°C 72% 29.95 in
(1014 mb)
SSW 4.6 mph
(SSW 7 kph)
- 10SM
02:55
Clear
63°F / 17°C 52°F / 11°C 68% 29.95 in
(1014 mb)
SSW 3.5 mph
(SSW 6 kph)
- 10SM
02:35
Clear
63°F / 17°C 52°F / 11°C 68% 29.95 in
(1014 mb)
SSW 4.6 mph
(SSW 7 kph)
- 10SM
02:15
Clear
63°F / 17°C 54°F / 12°C 73% 29.95 in
(1014 mb)
SW 4.6 mph
(SW 7 kph)
- 10SM
01:55
Clear
63°F / 17°C 54°F / 12°C 73% 29.98 in
(1015 mb)
SW 3.5 mph
(SW 6 kph)
- 10SM
01:35
Clear
64°F / 18°C 54°F / 12°C 68% 29.98 in
(1015 mb)
SW 5.8 mph
(SW 9 kph)
- 10SM
01:15
Clear
64°F / 18°C 54°F / 12°C 68% 29.98 in
(1015 mb)
SSW 5.8 mph
(SSW 9 kph)
- 10SM
00:55
Clear
64°F / 18°C 54°F / 12°C 68% 29.98 in
(1015 mb)
SW 6.9 mph
(SW 11 kph)
- 10SM
00:35
Clear
64°F / 18°C 52°F / 11°C 64% 29.98 in
(1015 mb)
SW 5.8 mph
(SW 9 kph)
- 7SM
00:15
Clear
66°F / 19°C 52°F / 11°C 60% 29.98 in
(1015 mb)
SSW 6.9 mph
(SSW 11 kph)
- 10SM
Time Weather Temperature Dewpoint Humidity Pressure Winds Precip Visibility


Weather for websites

WeatherForYou.com, LLC is not responsible for any damages or problems caused by this service. Current weather conditions are obtained from the closest station including government and personal stations which may have varying degrees of accuracy. Weather forecasts are derived from the NOAA NDFD. Like all things, this site belongs to Jesus Christ... He just trusts me to maintain it. If you have any questions or comments email webmaster@weatherforyou.com

Copyright © 2014, WeatherForYou.com LLC. All rights reserved.